Location: Cornospital
(48.0620°N, 3.3837°W)
Time: 19:21:10
(UTC+00:00)

Cosmos 1992 Rocket - Pass Details

Date: 17 June 2021
Orbit: 758 x 766 km, 74.0° (Epoch: 03 August)

Event Time Altitude Azimuth Distance (km) Brightness Sun altitude
Exits shadow 23:34:04 21° 216° (SW) 1,659 5.3 -18.0°
Maximum altitude 23:37:32 68° 295° (WNW) 824 4.2 -18.0°
Drops below altitude 10° 23:42:46 10° 19° (NNE) 2,310 7.4 -18.2°
Sets 23:45:11 0° 22° (NNE) 3,242 8.3 -18.2°
